Weather History for KOGA - January, 2014

Change the Weather History Date:

Saturday, January 11, 2014

  Actual Average (KIML) Record (KIML)
Temperature  
Mean Temperature 39 °F 28 °F  
Max Temperature 54 °F 41 °F 64 °F (2006)
Min Temperature 24 °F 15 °F -27 °F (1918)
Degree Days  
Heating Degree Days 26 37  
Month to date heating degree days 407  
Cooling Degree Days 0 0  
Month to date cooling degree days 0  
Year to date cooling degree days 0  
Moisture  
Dew Point 21 °F    
Average Humidity 47    
Maximum Humidity 76    
Minimum Humidity 28    
Precipitation  
Precipitation 0.00 in 0.01 in 0.30 in (1905)
Sea Level Pressure  
Sea Level Pressure 29.77 in    
Wind  
Wind Speed 14 mph (West)    
Max Wind Speed 22 mph    
Max Gust Speed 31 mph    
Visibility 10 miles    
Events      
T = Trace of Precipitation, MM = Missing Value Source: NWS Daily Summary

Daily Weather History Graph

Daily Weather History Graph

Search for Another Location

Airport or City:

Trip Planner

Search our weather history database for the weather conditions in past years. The results will help you decide how hot, cold, wet, or windy it might be!

Date:

Astronomy

Jan. 11, 2014 Rise Set
Actual Time 7:11 AM MST 4:38 PM MST
Civil Twilight 6:40 AM MST 5:09 PM MST
Nautical Twilight 6:06 AM MST 5:43 PM MST
Astronomical Twilight 5:33 AM MST 6:16 PM MST
Moon 1:24 PM MST (1/11) 3:17 AM MST (1/11)
Length of Visible Light 10h 28m
Length of Day
9h 27m
Waxing Gibbous, 83% of the Moon is Illuminated
Jan 11
Waxing Gibbous
Jan 15
Full
Jan 23
Last Quarter
Jan 30
New
Feb 6
First Quarter

Hourly Weather History & Observations

Time (MST) Temp. Windchill Dew Point Humidity Pressure Visibility Wind Dir Wind Speed Gust Speed Precip Events Conditions
12:15 AM 39.6 °F 30.0 °F 19.8 °F 45% 29.77 in 10.0 mi WNW 19.6 mph 25.3 mph N/A   Overcast
12:35 AM 38.1 °F 28.8 °F 21.2 °F 51% 29.77 in 10.0 mi WNW 17.3 mph 24.2 mph N/A   Overcast
12:55 AM 38.7 °F 28.8 °F 20.8 °F 49% 29.76 in 10.0 mi WNW 19.6 mph 26.5 mph N/A   Mostly Cloudy
1:15 AM 38.8 °F 28.5 °F 20.3 °F 47% 29.77 in 10.0 mi WNW 21.9 mph - N/A   Clear
1:35 AM 39.2 °F 29.3 °F 20.3 °F 47% 29.79 in 10.0 mi WNW 20.7 mph 27.6 mph N/A   Clear
1:55 AM 38.3 °F 27.8 °F 19.9 °F 48% 29.80 in 10.0 mi WNW 21.9 mph 26.5 mph N/A   Clear
2:15 AM 38.3 °F 28.4 °F 19.8 °F 47% 29.81 in 10.0 mi WNW 19.6 mph 25.3 mph N/A   Scattered Clouds
2:35 AM 38.5 °F 28.1 °F 19.4 °F 46% 29.81 in 10.0 mi WNW 21.9 mph 26.5 mph N/A   Mostly Cloudy
2:55 AM 37.4 °F 28.2 °F 19.9 °F 49% 29.81 in 10.0 mi WNW 16.1 mph - N/A   Scattered Clouds
3:15 AM 37.2 °F 26.7 °F 20.5 °F 51% 29.82 in 10.0 mi WNW 20.7 mph 31.1 mph N/A   Clear
3:35 AM 35.6 °F 26.6 °F 20.1 °F 53% 29.84 in 10.0 mi NW 13.8 mph - N/A   Clear
3:55 AM 34.3 °F 24.2 °F 20.3 °F 57% 29.84 in 10.0 mi NW 16.1 mph - N/A   Clear
4:15 AM 34.5 °F 24.1 °F 21.0 °F 58% 29.84 in 10.0 mi NW 17.3 mph - N/A   Clear
4:35 AM 34.7 °F 24.7 °F 20.8 °F 57% 29.85 in 10.0 mi NW 16.1 mph - N/A   Scattered Clouds
4:55 AM 33.1 °F 23.9 °F 21.0 °F 61% 29.86 in 10.0 mi NW 12.7 mph - N/A   Clear
5:15 AM 33.3 °F 23.2 °F 20.1 °F 59% 29.86 in 10.0 mi NW 15.0 mph - N/A   Clear
5:35 AM 32.7 °F 23.0 °F 19.9 °F 59% 29.86 in 10.0 mi WNW 13.8 mph - N/A   Clear
5:55 AM 33.3 °F 24.1 °F 20.1 °F 59% 29.87 in 10.0 mi WNW 12.7 mph - N/A   Clear
6:15 AM 32.9 °F 22.8 °F 19.9 °F 59% 29.88 in 10.0 mi WNW 15.0 mph - N/A   Clear
6:35 AM 25.7 °F 18.0 °F 18.0 °F 73% 29.88 in 10.0 mi West 6.9 mph - N/A   Clear
6:55 AM 24.6 °F 16.7 °F 17.4 °F 74% 29.88 in 10.0 mi West 6.9 mph - N/A   Clear
7:15 AM 24.1 °F 13.1 °F 17.6 °F 76% 29.88 in 10.0 mi WNW 11.5 mph 16.1 mph N/A   Clear
7:35 AM 32.9 °F 22.4 °F 19.2 °F 57% 29.88 in 10.0 mi WNW 16.1 mph - N/A   Clear
7:55 AM 30.4 °F 23.6 °F 19.4 °F 64% 29.89 in 10.0 mi WSW 6.9 mph - N/A   Clear
8:15 AM 29.7 °F 24.7 °F 19.9 °F 67% 29.90 in 10.0 mi WSW 4.6 mph - N/A   Clear
8:35 AM 32.2 °F 27.7 °F 20.8 °F 63% 29.91 in 10.0 mi WSW 4.6 mph - N/A   Clear
8:55 AM 39.9 °F 32.1 °F 20.7 °F 46% 29.91 in 10.0 mi WNW 13.8 mph 18.4 mph N/A   Clear
9:15 AM 42.6 °F 35.6 °F 20.8 °F 42% 29.91 in 10.0 mi NW 13.8 mph - N/A   Clear
9:35 AM 43.3 °F 36.1 °F 20.3 °F 40% 29.91 in 10.0 mi NW 15.0 mph - N/A   Clear
9:55 AM 44.2 °F 37.3 °F 20.1 °F 38% 29.90 in 10.0 mi NNW 15.0 mph - N/A   Clear
10:15 AM 45.3 °F 38.7 °F 19.9 °F 36% 29.90 in 10.0 mi NW 15.0 mph - N/A   Clear
10:35 AM 46.0 °F 39.9 °F 19.6 °F 35% 29.88 in 10.0 mi NNW 13.8 mph - N/A   Clear
10:55 AM 47.1 °F - 19.6 °F 34% 29.88 in 10.0 mi NNW 9.2 mph - N/A   Clear
11:15 AM 47.5 °F - 19.6 °F 33% 29.88 in 10.0 mi NW 6.9 mph - N/A   Clear
11:35 AM 49.1 °F - 19.6 °F 31% 29.87 in 10.0 mi WNW 6.9 mph 16.1 mph N/A   Clear
11:55 AM 49.5 °F - 18.7 °F 30% 29.85 in 10.0 mi WNW 9.2 mph - N/A   Clear
12:15 PM 50.4 °F - 19.4 °F 30% 29.84 in 10.0 mi West 9.2 mph - N/A   Clear
12:35 PM 51.3 °F - 20.7 °F 30% 29.82 in 10.0 mi WNW 10.4 mph - N/A   Clear
12:55 PM 52.0 °F - 20.7 °F 29% 29.80 in 10.0 mi WSW 11.5 mph - N/A   Clear
1:15 PM 52.2 °F - 20.8 °F 29% 29.79 in 10.0 mi SW 11.5 mph - N/A   Clear
1:35 PM 53.1 °F - 21.7 °F 29% 29.78 in 10.0 mi WSW 17.3 mph 23.0 mph N/A   Clear
1:55 PM 52.7 °F - 21.6 °F 30% 29.78 in 10.0 mi WSW 13.8 mph 21.9 mph N/A   Clear
2:15 PM 53.6 °F - 21.4 °F 28% 29.77 in 10.0 mi SW 13.8 mph 20.7 mph N/A   Clear
2:35 PM 54.3 °F - 21.4 °F 28% 29.76 in 7.0 mi SW 16.1 mph 20.7 mph N/A   Clear
2:55 PM 54.3 °F - 22.1 °F 29% 29.76 in 7.0 mi SW 15.0 mph 21.9 mph N/A   Clear
3:15 PM 53.6 °F - 22.5 °F 30% 29.75 in 7.0 mi SW 15.0 mph 19.6 mph N/A   Clear
3:35 PM 53.2 °F - 22.6 °F 30% 29.74 in 10.0 mi SSW 12.7 mph 18.4 mph N/A   Clear
3:55 PM 52.0 °F - 22.1 °F 31% 29.73 in 10.0 mi SSW 10.4 mph - N/A   Clear
4:15 PM 50.5 °F - 21.9 °F 33% 29.72 in 10.0 mi SSW 12.7 mph - N/A   Clear
4:35 PM 47.5 °F - 21.9 °F 36% 29.72 in 10.0 mi SSW 12.7 mph - N/A   Clear
4:55 PM 45.9 °F 41.2 °F 21.9 °F 39% 29.71 in 10.0 mi SSW 9.2 mph - N/A   Clear
5:15 PM 45.0 °F 39.7 °F 21.7 °F 40% 29.69 in 10.0 mi SSW 10.4 mph - N/A   Clear
5:35 PM 43.0 °F 39.5 °F 21.7 °F 43% 29.69 in 10.0 mi SW 5.8 mph - N/A   Clear
5:55 PM 40.6 °F 35.4 °F 21.4 °F 46% 29.70 in 10.0 mi WSW 8.1 mph - N/A   Clear
6:15 PM 43.9 °F 38.3 °F 21.4 °F 41% 29.68 in 10.0 mi SW 10.4 mph 16.1 mph N/A   Clear
6:35 PM 41.0 °F 34.7 °F 22.1 °F 47% 29.69 in 10.0 mi West 10.4 mph - N/A   Clear
6:55 PM 41.0 °F 35.8 °F 22.1 °F 47% 29.68 in 10.0 mi West 8.1 mph - N/A   Clear
7:15 PM 42.8 °F 36.2 °F 22.1 °F 44% 29.67 in 10.0 mi SW 12.7 mph 17.3 mph N/A   Clear
7:35 PM 39.9 °F 33.9 °F 22.1 °F 49% 29.67 in 10.0 mi WSW 9.2 mph - N/A   Clear
7:55 PM 38.1 °F 31.2 °F 22.1 °F 53% 29.65 in 10.0 mi SW 10.4 mph - N/A   Clear
8:15 PM 39.7 °F 34.9 °F 22.1 °F 49% 29.65 in 10.0 mi WSW 6.9 mph - N/A   Clear
8:35 PM 37.4 °F 30.8 °F 21.9 °F 54% 29.64 in 10.0 mi WSW 9.2 mph - N/A   Clear
8:55 PM 37.6 °F 31.6 °F 22.8 °F 55% 29.63 in 10.0 mi West 8.1 mph - N/A   Clear
9:15 PM 38.8 °F 32.6 °F 23.0 °F 53% 29.63 in 10.0 mi WSW 9.2 mph - N/A   Clear
9:35 PM 40.1 °F 34.1 °F 23.0 °F 51% 29.62 in 10.0 mi SW 9.2 mph - N/A   Clear
9:55 PM 39.2 °F 34.2 °F 23.4 °F 53% 29.62 in 10.0 mi West 6.9 mph - N/A   Clear
10:15 PM 36.0 °F 30.3 °F 23.0 °F 59% 29.61 in 10.0 mi SW 6.9 mph - N/A   Clear
10:35 PM 37.2 °F 32.6 °F 23.7 °F 58% 29.59 in 10.0 mi WSW 5.8 mph - N/A   Clear
10:55 PM 34.9 °F 29.0 °F 23.5 °F 63% 29.59 in 10.0 mi West 6.9 mph - N/A   Clear
11:15 PM 36.3 °F 30.8 °F 24.3 °F 62% 29.57 in 10.0 mi West 6.9 mph - N/A   Clear
11:35 PM 36.0 °F 29.0 °F 24.4 °F 63% 29.57 in 10.0 mi WSW 9.2 mph - N/A   Clear
11:55 PM 36.1 °F 29.9 °F 24.8 °F 63% 29.56 in 10.0 mi WSW 8.1 mph - N/A   Clear